{"data":{"norad_id":59799,"intl_designator":"2024-093T","name":"STARLINK-31810","alt_names":[],"object_type":"PAYLOAD","status":"ACTIVE","operator":null,"country":"US","launch_date":"2024-05-18","launch_site_code":"AFETR","launch_vehicle":null,"mission":null,"orbit_class":"UNKNOWN","rcs_meters":null,"size_class":null,"mass_kg":null,"dimensions":null,"purposes":["comms"],"wikipedia_slug":null,"has_3d_model":false,"image_url":null,"decayed_at":null,"tle_current":{"epoch":"2026-09-21T04:45:08.858880Z","epoch_age_seconds":114196,"freshness":"FRESH","line1":"1 59799U 24093T   26264.19801920  .00000229  00000+0  17857-4 0  9991","line2":"2 59799  43.0013 184.9553 0001259 262.1081  97.9628 15.27578947132590","mean_motion":15.27578947,"eccentricity":0.0001259,"inclination_deg":43.0013,"raan_deg":184.9553,"arg_perigee_deg":262.1081,"mean_anomaly_deg":97.9628,"bstar":1.7857e-5,"rev_number":13259,"period_min":94.26681369418,"perigee_km":482.18842537582,"apogee_km":483.91607282874,"semimajor_km":6861.1892491023,"source":"CELESTRAK","updated_at":"2026-09-22T09:00:49.074321Z"}}}